EA3ANS-1 Weather Reports


Display with metric or nautical units.
time (UTC)temp
F
wind
direction
speed
MPH
gust
MPH
rain 1hr
in
rain 24hr
in
rain mn
in
humidity
%
barometer
mb
20260505211242 55 142 0.0 0.0 0.00 0.10 0.17 1011.6
20260505210242 55 284 0.0 0.0 0.00 0.10 0.17 1011.5
20260505205245 55 319 0.0 0.0 0.00 0.10 0.17 1011.5
20260505204248 56 107 0.0 0.0 0.00 0.10 0.17 1011.4
20260505203250 55 107 0.0 0.0 0.00 0.10 0.17 1011.2
20260505202253 55 107 1.0 0.0 0.00 0.10 0.17 1011.1
20260505201241 55 122 3.0 3.0 0.00 0.10 0.17 1011.0
20260505200242 55 124 3.0 2.0 0.00 0.10 0.17 1010.8
20260505195241 56 111 3.0 2.0 0.00 0.10 0.17 1010.6
20260505194243 57 217 0.0 0.0 0.00 0.10 0.17 1010.4
20260505193242 57 217 0.0 0.0 0.00 0.10 0.17 1010.3
20260505192244 57 4 0.0 0.0 0.00 0.10 0.17 1010.0
20260505191247 57 309 2.0 4.0 0.00 0.10 0.17 1010.1
20260505190242 57 343 3.0 0.0 0.00 0.10 0.17 1009.9
20260505185243 57 347 6.0 2.0 0.01 0.10 0.17 1010.0
20260505184241 57 302 0.0 3.0 0.01 0.10 0.17 1010.1
20260505183241 57 58 3.0 2.0 0.01 0.10 0.17 1010.0
20260505182242 57 44 1.0 3.0 0.01 0.10 0.17 1009.7
20260505181242 57 129 1.0 0.0 0.01 0.10 0.17 1009.7
20260505180244 57 45 0.0 0.0 0.01 0.10 0.17 1009.8
20260505175240 57 45 0.0 0.0 0.08 0.10 0.17 1009.7
20260505174241 57 56 3.0 3.0 0.08 0.10 0.17 1009.7
20260505173243 58 35 0.0 0.0 0.08 0.10 0.16 1009.8
20260505172240 57 35 0.0 0.0 0.08 0.10 0.16 1009.8
20260505171240 57 3 3.0 1.0 0.08 0.10 0.16 1009.5
20260505170243 57 21 0.0 0.0 0.08 0.10 0.16 1009.8
20260505165244 58 70 4.0 3.0 0.08 0.10 0.16 1010.0
20260505164241 58 304 0.0 0.0 0.08 0.10 0.15 1010.1
20260505163241 57 287 3.0 2.0 0.08 0.10 0.14 1010.5
20260505162239 59 25 0.0 0.0 0.08 0.10 0.12 1010.2
20260505161240 59 312 5.0 7.0 0.08 0.10 0.12 1010.3
20260505160242 59 25 0.0 0.0 0.08 0.10 0.11 1010.5
20260505153240 62 293 7.0 7.0 0.00 0.10 0.06 1009.8
20260505152243 66 188 6.0 6.0 0.00 0.10 0.00 1009.3
20260505151239 66 135 8.0 8.0 0.00 0.10 0.00 1008.7
20260505150240 67 166 7.0 7.0 0.00 0.10 0.00 1008.6
20260505140240 69 145 7.0 9.0 0.00 0.10 0.00 1009.1
20260505130241 69 152 1.0 0.0 0.00 0.10 0.00 1010.0
20260505124240 69 70 3.0 4.0 0.00 0.10 0.00 1010.3
20260505123243 70 208 4.0 8.0 0.00 0.10 0.00 1010.3
20260505122245 71 200 4.0 3.0 0.00 0.10 0.00 1010.4
20260505121248 68 150 5.0 3.0 0.00 0.10 0.00 1010.6
20260505120239 68 201 5.0 10.0 0.00 0.10 0.00 1010.8
20260505115241 69 177 5.0 10.0 0.00 0.10 0.00 1010.8
20260505114242 68 135 4.0 4.0 0.00 0.10 0.00 1010.6
20260505113245 67 146 5.0 6.0 0.00 0.10 0.00 1011.0
20260505112248 68 118 4.0 3.0 0.00 0.10 0.00 1010.0
20260505111242 67 169 3.0 3.0 0.00 0.10 0.00 1011.2
20260505110245 67 146 6.0 4.0 0.00 0.10 0.00 1011.3
20260505101240 63 25 2.0 2.0 0.00 0.10 0.00 1011.6
20260505100240 62 342 7.0 8.0 0.00 0.10 0.00 1011.4
20260505095243 63 340 5.0 8.0 0.00 0.10 0.00 1011.3
20260505094239 62 305 6.0 9.0 0.00 0.10 0.00 1011.3
20260505093240 61 269 8.0 9.0 0.00 0.10 0.00 1011.4
20260505092240 59 277 7.0 5.0 0.00 0.10 0.00 1011.4
20260505091239 58 314 6.0 8.0 0.00 0.10 0.00 1011.4
20260505090239 57 336 8.0 8.0 0.00 0.10 0.00 1011.3
20260505085241 57 335 5.0 10.0 0.00 0.10 0.00 1011.6
20260505084244 57 359 9.0 6.0 0.00 0.10 0.00 1011.9
20260505083240 57 356 9.0 8.0 0.00 0.10 0.00 1012.0
20260505082241 57 338 9.0 9.0 0.00 0.10 0.00 1012.0
20260505081239 57 24 9.0 6.0 0.00 0.10 0.00 1011.8
20260505080240 57 7 11.0 6.0 0.00 0.10 0.00 1011.7
20260505075239 56 333 12.0 9.0 0.00 0.10 0.00 1011.6
20260505074240 57 20 8.0 5.0 0.00 0.10 0.00 1011.7
20260505073242 57 15 8.0 9.0 0.00 0.10 0.00 1011.7
20260505072239 56 1 11.0 9.0 0.00 0.10 0.00 1011.9
20260505071239 56 316 8.0 9.0 0.00 0.10 0.00 1011.9
20260505070240 55 323 5.0 8.0 0.00 0.10 0.00 1012.1
20260505065241 55 308 6.0 8.0 0.00 0.10 0.00 1012.0
20260505064240 54 342 8.0 8.0 0.00 0.10 0.00 1012.1
20260505063241 54 343 8.0 7.0 0.00 0.10 0.00 1011.9
20260505062243 54 314 7.0 10.0 0.00 0.10 0.00 1011.7
20260505061242 54 338 5.0 5.0 0.00 0.10 0.00 1011.7
20260505060240 53 311 7.0 5.0 0.00 0.10 0.00 1011.9
20260505055242 52 290 3.0 5.0 0.00 0.10 0.00 1011.9
20260505054241 51 294 4.0 5.0 0.00 0.10 0.00 1011.8
20260505053240 51 293 8.0 6.0 0.00 0.10 0.00 1011.9
20260505052243 52 293 6.0 6.0 0.00 0.10 0.00 1011.9
20260505051245 52 281 3.0 6.0 0.00 0.10 0.00 1011.6
20260505050243 52 325 5.0 5.0 0.00 0.10 0.00 1011.6
20260505041253 52 354 3.0 2.0 0.00 0.10 0.00 1012.1
20260505040256 52 300 5.0 4.0 0.00 0.10 0.00 1012.1
20260505035242 52 349 4.0 7.0 0.00 0.10 0.00 1012.0
20260505034245 52 335 5.0 4.0 0.00 0.10 0.00 1012.0
20260505033247 52 322 6.0 5.0 0.00 0.10 0.00 1012.0
20260505032243 52 266 5.0 4.0 0.00 0.10 0.00 1012.0
20260505031245 52 325 3.0 4.0 0.00 0.10 0.00 1012.0
20260505030248 52 305 7.0 10.0 0.00 0.10 0.00 1011.8
20260505025243 52 304 8.0 8.0 0.00 0.10 0.00 1011.8
20260505024240 52 321 9.0 9.0 0.00 0.10 0.00 1011.8
20260505023240 53 21 4.0 9.0 0.00 0.10 0.00 1011.8
20260505022240 53 319 8.0 4.0 0.00 0.10 0.00 1011.8
20260505021241 53 283 3.0 4.0 0.00 0.10 0.00 1011.9
20260505020244 53 352 5.0 5.0 0.00 0.10 0.00 1011.7
20260505015245 53 359 7.0 8.0 0.00 0.10 0.00 1011.7
20260505014248 54 318 7.0 7.0 0.00 0.10 0.00 1011.6
20260505013244 53 323 6.0 4.0 0.00 0.10 0.00 1011.7
20260505012241 53 295 5.0 5.0 0.00 0.10 0.00 1011.7
20260505011244 54 336 5.0 4.0 0.00 0.10 0.00 1011.7
20260505010243 54 342 6.0 5.0 0.00 0.10 0.00 1011.8
20260505005243 54 309 6.0 6.0 0.00 0.10 0.00 1012.0
20260505004245 55 308 4.0 3.0 0.00 0.10 0.00 1012.0
20260505003246 54 305 2.0 4.0 0.00 0.10 0.00 1011.9
20260505002243 54 326 5.0 3.0 0.00 0.10 0.00 1011.9
20260505001240 54 339 4.0 3.0 0.00 0.10 0.00 1011.9
20260505000239 54 336 2.0 4.0 0.00 0.10 0.00 1011.9
20260504235240 54 30 2.0 1.0 0.00 0.10 0.00 1011.9
20260504234239 54 162 0.0 1.0 0.00 0.10 0.00 1011.9
20260504233242 54 205 1.0 0.0 0.00 0.10 0.00 1011.8
20260504232244 54 295 0.0 0.0 0.00 0.10 0.00 1011.7
20260504231241 55 295 2.0 0.0 0.00 0.10 0.00 1011.8
20260504230240 55 242 1.0 1.0 0.00 0.10 0.00 1011.8
20260504225240 54 24 0.0 0.0 0.00 0.10 0.00 1011.8
20260504224240 55 24 0.0 0.0 0.00 0.10 0.00 1011.7
20260504223241 55 24 0.0 0.0 0.00 0.10 0.00 1011.6
20260504222244 56 24 0.0 0.0 0.00 0.10 0.00 1011.5
20260504221246 56 24 0.0 0.0 0.00 0.10 0.00 1011.4
20260504220241 56 24 2.0 0.0 0.00 0.10 0.00 1011.5
20260504215240 56 13 0.0 0.0 0.09 0.02 0.10 1011.4
20260504214240 56 194 0.0 0.0 0.09 0.02 0.10 1011.5
20260504213243 56 210 0.0 2.0 0.09 0.02 0.10 1011.4
20260504212245 57 135 2.0 2.0 0.09 0.02 0.10 1011.4